Overview Statistics Trail Chart Weather Telemetry Raw packets
 

This is the latest recevied weather packets stored in our database for station/object ED4YAF-13. If no packets are shown the sender has not sent any weather packets the latest 10 day(s).

<< 30 31 32 33 34 35 36 >>
Time Temp. Humidity Pressure Rain* Wind** Luminosity Snow
1787868750 10° C 67% 1019.1 hPa - - - -
1787867850 10° C 65% 1019 hPa - - - -
1787866950 10.56° C 64% 1018.7 hPa - - - -
1787866050 10.56° C 64% 1018.2 hPa - - - -
1787864250 10.56° C 64% 1017.9 hPa - - - -
1787863336 10.56° C 64% 1017.9 hPa - - - -
1787862436 10.56° C 63% 1017.7 hPa - - - -
1787861524 10.56° C 62% 1017.2 hPa - - - -
1787860624 10.56° C 61% 1017 hPa - - - -
1787859715 11.11° C 56% 1016.5 hPa - - - -
1787858815 11.11° C 56% 1016.2 hPa - - - -
1787857906 11.11° C 55% 1015.7 hPa - - - -
1787857013 11.11° C 54% 1015.6 hPa - - - -
1787855385 11.67° C 52% 1015.2 hPa - - - -
1787854481 11.67° C 53% 1015 hPa - - - -
1787853561 12.22° C 52% 1014.7 hPa - - - -
1787852668 12.78° C 50% 1014.3 hPa - - - -
1787851768 12.78° C 49% 1014.1 hPa - - - -
1787850860 13.33° C 48% 1013.5 hPa - - - -
1787849960 13.89° C 47% 1013.2 hPa - - - -
1787849026 14.44° C 45% 1012.8 hPa - - - -
1787848125 15° C 44% 1012.5 hPa - - - -
1787847232 15.56° C 43% 1011.7 hPa - - - -
1787846331 16.11° C 44% 1011.2 hPa - - - -
1787845421 16.67° C 43% 1011 hPa - - - -

* Rain since midnight (hover to see other rain measurements)
** Current wind speed in m/s (hover to see current wind gust speed)